[[{"header":{"parameterUnit":"m.s-1","parameterCategory":1,"la1":30.2991,"la2":30.254,"lo1":-89.0895,"lo2":-89.0444,"dy":0.0017,"dx":0.0017,"nx":28,"ny":28,"refTime":"2024-09-02T09:00:00:Z","depth":0,"parameterNumber":2,"parameterNumberName":"U-component_of_WINDS"},"data":[0,0,0,0,0,0,0,0,0,0,0,0,0,0,0,0,0,0,0,0,0,0,0,0,0,0,0,0,0,0,0,0,0,0,0,0,0,0,0,0,0,0,0,0,0,0,0,0,0,0,0,0,0,0,0,0,0,0,-1.2264,-1.2262,0,-1.2125,-1.2123,-1.2122,-1.2058,-1.2058,-1.2058,-1.2059,-1.1916,-1.1912,-1.1908,0,0,0,0,0,0,0,0,0,0,0,0,0,-1.2474,-1.2471,-1.2264,-1.2262,-1.226,-1.2125,-1.2123,-1.2122,-1.2058,-1.2058,-1.2058,-1.2059,-1.1917,-1.1912,-1.1908,0,0,0,0,0,0,0,0,0,0,0,0,0,-1.2364,-1.247,-1.2264,-1.2212,-1.2206,-1.2126,-1.2123,-1.2121,-1.2058,-1.2058,-1.2059,-1.2059,-1.1918,-1.1913,-1.1907,-1.1867,0,0,-1.1889,-1.1886,0,0,0,0,0,0,0,0,-1.237,-1.2356,-1.2222,-1.2216,-1.2209,-1.2109,-1.2145,-1.2036,-1.2058,-1.2114,-1.2059,-1.2059,-1.198,-1.1969,-1.1942,-1.186,-1.1854,-1.1888,-1.1885,-1.1882,-1.1881,0,0,0,0,0,0,0,-1.2378,-1.2362,-1.2209,-1.222,-1.2212,-1.2196,-1.2181,-1.2124,-1.2048,-1.211,-1.2105,-1.2089,-1.1976,-1.1948,-1.1939,-1.1852,-1.1889,-1.1883,-1.188,-1.1877,-1.1732,-1.1731,0,0,0,0,0,0,-1.2394,-1.2369,-1.2213,-1.2205,-1.2292,-1.2193,-1.2175,-1.2141,-1.2048,-1.2034,-1.2089,-1.2087,-1.1958,-1.1945,-1.1933,-1.1881,-1.1882,-1.1877,-1.1873,-1.1732,-1.1732,-1.1731,0,0,0,0,0,0,-1.2399,-1.2381,-1.2219,-1.2285,-1.2263,-1.2189,-1.2151,-1.2138,-1.211,-1.2033,-1.2019,-1.2074,-1.1958,-1.1942,-1.1884,-1.1875,-1.1874,-1.1869,-1.1732,-1.1732,-1.1732,-1.1776,0,0,0,0,0,0,-1.2405,-1.2383,-1.2367,-1.2285,-1.226,-1.2172,-1.215,-1.2135,-1.21,-1.2096,-1.2015,-1.2002,-1.1957,-1.1893,-1.1878,-1.1867,-1.1864,-1.1733,-1.1732,-1.1732,-1.1775,-1.1778,-1.1779,0,0,0,0,0,-1.2413,-1.2384,-1.2366,-1.2348,-1.2238,-1.2172,-1.2157,-1.2106,-1.21,-1.2083,-1.2034,-1.2005,-1.1879,-1.1888,-1.1871,-1.1858,-1.1733,-1.1732,-1.1732,-1.1775,-1.1777,-1.1779,0,0,0,0,0,0,-1.2465,-1.2372,-1.2351,-1.2295,-1.2242,-1.2161,-1.2138,-1.211,-1.2057,-1.2055,-1.1993,-1.1976,-1.1924,-1.1885,-1.1897,-1.1815,-1.1804,-1.1799,-1.1842,-1.1844,-1.1846,-1.1856,-1.1859,0,0,0,0,0,-1.247,-1.2424,-1.2345,-1.2304,-1.2278,-1.2213,-1.2182,-1.2147,-1.2089,-1.2066,-1.2013,-1.1958,-1.1906,-1.1873,-1.1821,-1.177,-1.1752,-1.1753,-1.1755,-1.1757,-1.1753,-1.1725,-1.1725,-1.1729,-1.1729,-1.1729,0,0,-1.248,-1.2423,-1.2398,-1.2313,-1.2267,-1.2221,-1.2194,-1.2146,-1.2111,-1.2059,-1.2002,-1.1961,-1.1895,-1.1842,-1.1815,-1.1808,-1.1749,-1.1756,-1.1758,-1.1753,-1.1725,-1.1724,-1.1724,-1.1728,-1.1728,-1.1729,0,0,-1.2474,-1.2426,-1.2387,-1.2343,-1.2275,-1.2232,-1.2223,-1.2147,-1.2118,-1.206,-1.202,-1.1978,-1.189,-1.1846,-1.1811,-1.1792,-1.1764,-1.1777,-1.1787,-1.176,-1.176,-1.176,-1.1754,-1.1752,-1.1774,-1.1774,-1.1774,0,-1.2494,-1.2423,-1.237,-1.2325,-1.2289,-1.2241,-1.2201,-1.2161,-1.2079,-1.2056,-1.2049,-1.1939,-1.1891,-1.1827,-1.1823,-1.1796,-1.1785,-1.1785,-1.1765,-1.1763,-1.1762,-1.1756,-1.1753,-1.1776,-1.1776,-1.1776,-1.1776,0,-1.2452,-1.2403,-1.238,-1.2304,-1.2265,-1.2223,-1.2165,-1.2132,-1.2102,-1.2061,-1.2003,-1.1945,-1.1881,-1.1864,-1.1833,-1.1796,-1.1794,-1.1776,-1.1764,-1.1765,-1.1758,-1.1755,-1.1779,-1.1779,-1.1778,-1.1778,0,0,-1.2472,-1.237,-1.2362,-1.2328,-1.2251,-1.2212,-1.2169,-1.2107,-1.2081,-1.2028,-1.199,-1.1918,-1.1902,-1.1864,-1.1828,-1.1805,-1.1795,-1.179,-1.1788,-1.1793,-1.1752,-1.1765,-1.1763,-1.1776,-1.1775,-1.1775,-1.1758,0,-1.2456,-1.2376,-1.2328,-1.2268,-1.2223,-1.2178,-1.214,-1.209,-1.205,-1.2007,-1.1964,-1.1914,-1.1896,-1.1873,-1.1848,-1.1801,-1.1785,-1.1802,-1.1741,-1.1739,-1.1758,-1.1759,-1.1773,-1.1759,-1.1754,-1.1754,-1.1753,0,-1.2426,-1.2374,-1.231,-1.224,-1.2219,-1.2186,-1.2127,-1.2086,-1.2028,-1.2001,-1.196,-1.1925,-1.1878,-1.187,-1.1805,-1.1818,-1.179,-1.1764,-1.1762,-1.1754,-1.1746,-1.1751,-1.1753,-1.1752,-1.1748,-1.1749,-1.1749,0,-1.2448,-1.2363,-1.2313,-1.2285,-1.2202,-1.218,-1.2145,-1.2087,-1.2054,-1.2003,-1.1981,-1.1925,-1.1894,-1.1851,-1.1802,-1.1801,-1.1743,-1.1731,-1.172,-1.1721,-1.1709,-1.171,-1.1707,-1.1692,-1.1692,-1.1692,-1.1692,0,-1.2435,-1.2397,-1.2323,-1.2292,-1.2249,-1.2196,-1.2155,-1.2116,-1.2065,-1.2027,-1.1985,-1.195,-1.1887,-1.1845,-1.1807,-1.176,-1.1746,-1.1723,-1.1713,-1.1727,-1.173,-1.1707,-1.1707,-1.1691,-1.1691,-1.1691,-1.1692,0,-1.2452,-1.2401,-1.2344,-1.2271,-1.2252,-1.2224,-1.2161,-1.213,-1.209,-1.2042,-1.2028,-1.1965,-1.1913,-1.186,-1.179,-1.1764,-1.1719,-1.1705,-1.1738,-1.1733,-1.1725,-1.1727,-1.1707,-1.1702,-1.1691,-1.1691,-1.1691,0,-1.2447,-1.2417,-1.2341,-1.2313,-1.2279,-1.2234,-1.22,-1.2147,-1.2114,-1.2048,-1.2025,-1.1971,-1.1924,-1.1844,-1.1791,-1.1738,-1.1723,-1.172,-1.1714,-1.173,-1.1723,-1.1726,-1.1723,-1.1722,-1.1722,-1.1722,-1.1723,0,-1.2443,-1.242,-1.2373,-1.2318,-1.228,-1.2234,-1.2187,-1.2166,-1.2104,-1.2069,-1.2016,-1.1981,-1.191,-1.1857,-1.1798,-1.1761,-1.1732,-1.1725,-1.172,-1.1733,-1.1754,-1.1743,-1.1744,-1.1725,-1.1725,-1.1725,-1.1725,-1.1725,-1.2448,-1.2421,-1.2364,-1.2314,-1.2273,-1.2231,-1.2199,-1.2156,-1.2111,-1.2049,-1.2021,-1.1969,-1.1913,-1.1831,-1.1796,-1.1754,-1.1746,-1.1738,-1.1736,-1.1735,-1.1739,-1.1761,-1.1743,-1.1743,-1.1743,-1.1743,-1.1743,0,-1.2443,-1.2405,-1.236,-1.2296,-1.2257,-1.2234,-1.2181,-1.215,-1.2105,-1.2056,-1.2012,-1.1952,-1.1901,-1.1846,-1.1791,-1.1769,-1.1754,-1.1756,-1.1757,-1.175,-1.1749,-1.1759,-1.1769,-1.1769,-1.1769,-1.1769,-1.1769,-1.1769,-1.2436,-1.2388,-1.2358,-1.229,-1.2252,-1.2201,-1.2173,-1.2134,-1.2095,-1.203,-1.1988,-1.1953,-1.1902,-1.1844,-1.1797,-1.1782,-1.1764,-1.177,-1.1752,-1.1752,-1.175,-1.1748,-1.1757,-1.1767,-1.1767,-1.1756,-1.1756,-1.1756]},{"header":{"parameterUnit":"m.s-1","parameterCategory":1,"la1":30.2991,"la2":30.254,"lo1":-89.0895,"lo2":-89.0444,"dy":0.0017,"dx":0.0017,"nx":28,"ny":28,"refTime":"2024-09-02T09:00:00:Z","depth":0,"parameterNumber":3,"parameterNumberName":"V-component_of_WINDS"},"data":[0,0,0,0,0,0,0,0,0,0,0,0,0,0,0,0,0,0,0,0,0,0,0,0,0,0,0,0,0,0,0,0,0,0,0,0,0,0,0,0,0,0,0,0,0,0,0,0,0,0,0,0,0,0,0,0,0,0,0.3842,0.3842,0,0.3882,0.3883,0.3883,0.3892,0.3892,0.3891,0.3891,0.3932,0.3933,0.3934,0,0,0,0,0,0,0,0,0,0,0,0,0,0.377,0.3772,0.3842,0.3842,0.3843,0.3882,0.3883,0.3883,0.3892,0.3892,0.3891,0.3891,0.3931,0.3933,0.3934,0,0,0,0,0,0,0,0,0,0,0,0,0,0.3805,0.3772,0.3842,0.3852,0.3853,0.3882,0.3883,0.3883,0.3892,0.3892,0.3891,0.3891,0.3931,0.3933,0.3935,0.3956,0,0,0.3941,0.3942,0,0,0,0,0,0,0,0,0.3803,0.3808,0.385,0.3851,0.3853,0.3882,0.3872,0.3908,0.3892,0.3877,0.3891,0.389,0.3915,0.3918,0.3927,0.3958,0.3959,0.3941,0.3942,0.3943,0.3944,0,0,0,0,0,0,0,0.3801,0.3806,0.3858,0.3851,0.3852,0.3854,0.3858,0.3879,0.3898,0.3879,0.3879,0.3884,0.3916,0.3925,0.3928,0.396,0.3941,0.3943,0.3944,0.3945,0.4007,0.4008,0,0,0,0,0,0,0.3797,0.3804,0.3857,0.3859,0.3826,0.3855,0.386,0.3873,0.3898,0.3901,0.3884,0.3884,0.3922,0.3926,0.3929,0.3954,0.3943,0.3945,0.3946,0.4007,0.4007,0.4008,0,0,0,0,0,0,0.3795,0.3801,0.3855,0.3832,0.3839,0.3857,0.3871,0.3874,0.3883,0.3902,0.3906,0.389,0.3922,0.3927,0.3949,0.3956,0.3946,0.3948,0.4006,0.4007,0.4008,0.4005,0,0,0,0,0,0,0.3793,0.3801,0.381,0.3832,0.384,0.3874,0.3871,0.3875,0.3886,0.3887,0.3909,0.3912,0.3922,0.3946,0.3951,0.3958,0.3949,0.4006,0.4007,0.4007,0.4005,0.4006,0.4006,0,0,0,0,0,0.379,0.3808,0.381,0.3816,0.3852,0.3875,0.3879,0.389,0.3887,0.3896,0.3908,0.3911,0.3954,0.3948,0.3954,0.3962,0.4005,0.4006,0.4007,0.4004,0.4005,0.4006,0,0,0,0,0,0,0.3787,0.3811,0.3814,0.3839,0.3855,0.3876,0.3887,0.3891,0.3908,0.3908,0.392,0.3925,0.3946,0.3956,0.3949,0.3983,0.398,0.3982,0.3975,0.3976,0.3977,0.3974,0.3951,0,0,0,0,0,0.3788,0.3806,0.3826,0.3846,0.3854,0.3869,0.388,0.3886,0.3903,0.391,0.3924,0.3939,0.3956,0.3967,0.3984,0.4006,0.401,0.4015,0.4015,0.4016,0.4018,0.4028,0.403,0.4011,0.4011,0.4011,0,0,0.3793,0.3808,0.3819,0.3846,0.3859,0.3875,0.3875,0.3893,0.3905,0.3912,0.3934,0.3944,0.3962,0.3984,0.3994,0.3993,0.4024,0.4017,0.4018,0.4019,0.403,0.4031,0.4033,0.4012,0.4012,0.4012,0,0,0.3809,0.3823,0.384,0.3853,0.3872,0.3882,0.3886,0.3906,0.3913,0.3935,0.394,0.3954,0.3984,0.3996,0.4006,0.4024,0.4027,0.4029,0.4033,0.4044,0.4045,0.4046,0.4051,0.4053,0.403,0.403,0.403,0,0.3812,0.3838,0.3849,0.3866,0.3877,0.3884,0.3901,0.3912,0.3936,0.3943,0.3941,0.3977,0.399,0.4013,0.4017,0.4026,0.4029,0.4026,0.4044,0.4045,0.4047,0.4052,0.4054,0.403,0.403,0.403,0.403,0,0.3839,0.3857,0.3868,0.389,0.3902,0.3919,0.3932,0.3943,0.3948,0.3958,0.3978,0.3993,0.4012,0.4019,0.4024,0.4042,0.4041,0.4042,0.4039,0.4048,0.4053,0.4055,0.403,0.403,0.403,0.403,0,0,0.3855,0.3882,0.3885,0.3894,0.3915,0.3929,0.3945,0.3963,0.3971,0.3987,0.4,0.4024,0.4024,0.4035,0.4042,0.4051,0.4062,0.405,0.4051,0.4051,0.4081,0.408,0.4082,0.4064,0.4065,0.4065,0.4079,0,0.3873,0.3902,0.3912,0.3936,0.3951,0.3957,0.3971,0.3985,0.3994,0.4007,0.4017,0.4033,0.4032,0.4039,0.4048,0.4059,0.4068,0.4058,0.4075,0.4076,0.407,0.4085,0.4084,0.4096,0.4081,0.4081,0.4082,0,0.3898,0.3913,0.3938,0.3955,0.3962,0.3974,0.3991,0.4004,0.4019,0.4024,0.4036,0.4041,0.4057,0.4053,0.4075,0.4068,0.4075,0.4081,0.4082,0.4084,0.4079,0.4086,0.4101,0.4102,0.4085,0.4085,0.4084,0,0.3904,0.3931,0.395,0.3957,0.3978,0.3986,0.3995,0.4009,0.4019,0.4033,0.4039,0.4055,0.4064,0.4075,0.4085,0.4081,0.4104,0.4102,0.4109,0.4108,0.4113,0.4113,0.4129,0.4119,0.4119,0.4119,0.4119,0,0.3923,0.3938,0.3953,0.3964,0.398,0.399,0.4006,0.4015,0.4028,0.404,0.4046,0.4058,0.4069,0.4082,0.4089,0.4105,0.4109,0.4113,0.4115,0.4112,0.4112,0.4117,0.4116,0.412,0.412,0.4119,0.4119,0,0.3933,0.3944,0.3964,0.3981,0.3986,0.3997,0.4011,0.4022,0.403,0.4045,0.405,0.4063,0.4078,0.4088,0.4107,0.4112,0.4129,0.4131,0.4124,0.4124,0.413,0.4129,0.415,0.4153,0.4142,0.4142,0.4142,0,0.3944,0.3955,0.3973,0.3982,0.399,0.4004,0.4014,0.4024,0.4033,0.405,0.4058,0.4073,0.4086,0.4109,0.412,0.4134,0.4136,0.4142,0.4138,0.4135,0.4135,0.4134,0.4134,0.4143,0.4143,0.4143,0.4143,0,0.396,0.3965,0.3978,0.3993,0.4004,0.4016,0.4029,0.4035,0.4047,0.4057,0.4072,0.4082,0.4101,0.4116,0.4131,0.4139,0.4142,0.4144,0.4146,0.4144,0.4138,0.414,0.4124,0.4144,0.4143,0.4143,0.4143,0.4143,0.397,0.398,0.3994,0.4008,0.4018,0.4029,0.4039,0.4048,0.4061,0.4077,0.4082,0.4098,0.411,0.4131,0.4139,0.4151,0.415,0.4154,0.4154,0.4155,0.4154,0.4137,0.4154,0.4154,0.4154,0.4154,0.4154,0,0.3986,0.3995,0.4008,0.4025,0.4035,0.4038,0.4051,0.406,0.4073,0.4085,0.4097,0.4113,0.4127,0.4138,0.4152,0.4159,0.4161,0.4162,0.4162,0.4163,0.4154,0.4151,0.4161,0.4161,0.4161,0.4161,0.4161,0.4161,0.3996,0.4012,0.4017,0.4038,0.4047,0.4061,0.4069,0.4078,0.4088,0.4106,0.4117,0.4124,0.4135,0.415,0.4162,0.4165,0.417,0.417,0.4174,0.4165,0.4164,0.4163,0.416,0.4171,0.4171,0.4181,0.4182,0.4182]}]]